GW3424 Weather Reports


Display with metric or nautical units.
time (UTC)temp
F
wind
direction
speed
MPH
gust
MPH
rain 1hr
in
rain 24hr
in
rain mn
in
humidity
%
barometer
mb
20260904011051 100 360 3.0 12.0 0.00 0.00 0.00 32 970.1
20260904010551 100 275 7.0 12.0 0.00 0.00 0.00 30 970.2
20260904010053 100 319 3.0 6.0 0.00 0.00 0.00 31 970.3
20260904005550 100 44 2.0 6.0 0.00 0.00 0.00 31 970.3
20260904005051 100 360 4.0 6.0 0.00 0.00 0.00 30 970.3
20260904004552 100 294 2.0 6.0 0.00 0.00 0.00 32 970.2
20260904004052 100 311 5.0 10.0 0.00 0.00 0.00 32 970.3
20260904003550 100 297 6.0 10.0 0.00 0.00 0.00 31 970.3
20260904003051 100 318 6.0 11.0 0.00 0.00 0.00 32 970.4
20260904002551 100 360 9.0 12.0 0.00 0.00 0.00 31 970.3
20260904002051 101 330 7.0 12.0 0.00 0.00 0.00 31 970.3
20260904001550 101 271 4.0 7.0 0.00 0.00 0.00 29 970.3
20260904001051 101 257 3.0 8.0 0.00 0.00 0.00 29 970.2
20260904000551 100 360 4.0 8.0 0.00 0.00 0.00 30 970.3
20260904000100 100 188 4.0 5.0 0.00 0.00 0.00 31 970.4
20260903235553 100 178 1.0 6.0 0.00 0.00 0.00 31 970.4
20260903235050 100 178 2.0 7.0 0.00 0.00 0.00 31 970.4
20260903234551 100 183 5.0 8.0 0.00 0.00 0.00 31 970.4
20260903234051 100 360 4.0 9.0 0.00 0.00 0.00 31 970.4
20260903233551 101 236 3.0 9.0 0.00 0.00 0.00 31 970.4
20260903233055 101 237 0.0 9.0 0.00 0.00 0.00 30 970.5
20260903232551 101 270 5.0 9.0 0.00 0.00 0.00 30 970.5
20260903232051 101 240 5.0 8.0 0.00 0.00 0.00 31 970.5
20260903231554 100 231 2.0 9.0 0.00 0.00 0.00 31 970.6
20260903231050 100 234 4.0 10.0 0.00 0.00 0.00 31 970.6
20260903230551 100 234 5.0 12.0 0.00 0.00 0.00 31 970.7
20260903230053 100 243 3.0 12.0 0.00 0.00 0.00 31 970.8
20260903225551 100 283 7.0 12.0 0.00 0.00 0.00 31 970.9
20260903225051 101 275 7.0 11.0 0.00 0.00 0.00 31 970.9
20260903224610 101 347 3.0 10.0 0.00 0.00 0.00 30 970.9
20260903224052 101 9 7.0 12.0 0.00 0.00 0.00 30 970.9
20260903223552 102 65 6.0 12.0 0.00 0.00 0.00 30 971.0
20260903223051 102 347 4.0 11.0 0.00 0.00 0.00 29 971.0
20260903222551 102 13 2.0 10.0 0.00 0.00 0.00 30 971.0
20260903222051 101 223 5.0 11.0 0.00 0.00 0.00 31 971.0
20260903221551 100 294 5.0 11.0 0.00 0.00 0.00 31 971.2
20260903221050 99 276 7.0 13.0 0.00 0.00 0.00 31 971.3
20260903220551 100 292 8.0 13.0 0.00 0.00 0.00 31 971.4
20260903220051 100 346 8.0 13.0 0.00 0.00 0.00 32 971.6
20260903215552 100 320 7.0 13.0 0.00 0.00 0.00 31 971.6
20260903215052 100 306 8.0 15.0 0.00 0.00 0.00 32 971.7
20260903214607 100 340 10.0 15.0 0.00 0.00 0.00 31 971.7
20260903214053 100 320 7.0 13.0 0.00 0.00 0.00 31 971.8
20260903213550 99 324 9.0 15.0 0.00 0.00 0.00 32 972.0
20260903213100 99 294 8.0 16.0 0.00 0.00 0.00 32 972.1
20260903212552 100 317 12.0 16.0 0.00 0.00 0.00 32 972.1
20260903212051 99 54 6.0 15.0 0.00 0.00 0.00 31 972.2
20260903211551 99 74 6.0 15.0 0.00 0.00 0.00 32 972.3
20260903211051 98 96 3.0 12.0 0.00 0.00 0.00 32 972.4
20260903210551 99 114 7.0 14.0 0.00 0.00 0.00 31 972.4
20260903210122 100 38 9.0 17.0 0.00 0.00 0.00 30 972.4
20260903205551 100 360 11.0 17.0 0.00 0.00 0.00 30 972.5
20260903205051 100 28 4.0 16.0 0.00 0.00 0.00 31 972.6
20260903204552 99 52 10.0 15.0 0.00 0.00 0.00 31 972.6
20260903204053 99 313 4.0 16.0 0.00 0.00 0.00 32 972.8
20260903203550 99 66 11.0 16.0 0.00 0.00 0.00 31 972.8
20260903203107 99 36 3.0 17.0 0.00 0.00 0.00 31 973.0
20260903202554 99 51 10.0 17.0 0.00 0.00 0.00 31 973.1
20260903202053 99 73 5.0 14.0 0.00 0.00 0.00 31 973.1
20260903201552 99 126 5.0 16.0 0.00 0.00 0.00 32 973.1
20260903201051 98 59 10.0 16.0 0.00 0.00 0.00 31 973.3
20260903200551 99 96 6.0 17.0 0.00 0.00 0.00 31 973.4
20260903200055 100 53 7.0 16.0 0.00 0.00 0.00 31 973.4
20260903195551 99 271 6.0 11.0 0.00 0.00 0.00 33 973.6
20260903195051 98 88 4.0 16.0 0.00 0.00 0.00 32 973.6
20260903194551 98 326 9.0 16.0 0.00 0.00 0.00 34 973.7
20260903194050 98 57 7.0 12.0 0.00 0.00 0.00 33 973.7
20260903193551 98 286 4.0 12.0 0.00 0.00 0.00 34 973.6
20260903193051 98 309 6.0 12.0 0.00 0.00 0.00 34 973.7
20260903192552 98 99 7.0 11.0 0.00 0.00 0.00 34 973.9
20260903192050 99 59 7.0 11.0 0.00 0.00 0.00 33 973.9
20260903191551 98 32 6.0 19.0 0.00 0.00 0.00 34 974.0
20260903191052 97 268 6.0 19.0 0.00 0.00 0.00 35 974.1
20260903190551 97 294 10.0 18.0 0.00 0.00 0.00 35 974.3
20260903190051 97 300 8.0 18.0 0.00 0.00 0.00 36 974.4
20260903185550 97 303 9.0 15.0 0.00 0.00 0.00 36 974.4
20260903185051 97 246 7.0 12.0 0.00 0.00 0.00 36 974.5
20260903184551 96 85 2.0 11.0 0.00 0.00 0.00 38 974.6
20260903184051 96 117 7.0 14.0 0.00 0.00 0.00 37 974.6
20260903183551 97 21 6.0 14.0 0.00 0.00 0.00 36 974.8
20260903183051 97 59 6.0 10.0 0.00 0.00 0.00 37 974.9
20260903182551 97 54 4.0 11.0 0.00 0.00 0.00 36 975.0
20260903182051 98 307 6.0 11.0 0.00 0.00 0.00 37 975.0
20260903181550 98 236 2.0 8.0 0.00 0.00 0.00 36 975.1
20260903181050 98 205 2.0 4.0 0.00 0.00 0.00 36 975.2
20260903180552 97 278 2.0 10.0 0.00 0.00 0.00 37 975.4
20260903180051 97 277 4.0 10.0 0.00 0.00 0.00 37 975.6
20260903175550 96 22 2.0 9.0 0.00 0.00 0.00 38 975.5
20260903175050 96 310 4.0 9.0 0.00 0.00 0.00 38 975.6
20260903174551 96 283 1.0 7.0 0.00 0.00 0.00 38 975.7
20260903174050 96 226 1.0 7.0 0.00 0.00 0.00 38 975.8
20260903173551 96 233 4.0 12.0 0.00 0.00 0.00 38 975.8
20260903173051 95 11 3.0 12.0 0.00 0.00 0.00 39 975.7
20260903172552 95 355 2.0 9.0 0.00 0.00 0.00 39 975.8
20260903172051 94 360 2.0 4.0 0.00 0.00 0.00 40 975.9
20260903171551 93 360 0.0 10.0 0.00 0.00 0.00 41 975.9
20260903171051 93 360 5.0 10.0 0.00 0.00 0.00 41 975.8
20260903170551 92 360 5.0 15.0 0.00 0.00 0.00 42 975.7
20260903170051 93 360 4.0 15.0 0.00 0.00 0.00 41 975.7
20260903165551 93 360 5.0 11.0 0.00 0.00 0.00 42 975.8
20260903165051 92 360 4.0 10.0 0.00 0.00 0.00 42 975.9
20260903164551 92 360 5.0 12.0 0.00 0.00 0.00 42 975.9
20260903164051 92 22 3.0 12.0 0.00 0.00 0.00 43 975.9
20260903163552 92 24 3.0 12.0 0.00 0.00 0.00 43 975.9
20260903163056 92 304 8.0 12.0 0.00 0.00 0.00 44 975.9
20260903162551 91 19 6.0 14.0 0.00 0.00 0.00 44 976.1
20260903162051 91 19 7.0 13.0 0.00 0.00 0.00 45 976.0
20260903161554 91 360 6.0 12.0 0.00 0.00 0.00 47 976.0
20260903161050 91 360 5.0 12.0 0.00 0.00 0.00 47 976.0
20260903160551 90 360 7.0 12.0 0.00 0.00 0.00 48 976.0
20260903160057 90 360 6.0 12.0 0.00 0.00 0.00 48 976.0
20260903155550 90 360 7.0 11.0 0.00 0.00 0.00 48 976.1
20260903155051 90 360 6.0 12.0 0.00 0.00 0.00 48 976.1
20260903154606 90 360 8.0 12.0 0.00 0.00 0.00 48 976.2
20260903154053 90 360 4.0 14.0 0.00 0.00 0.00 47 976.2
20260903153550 90 360 6.0 14.0 0.00 0.00 0.00 48 976.2
20260903153052 90 360 5.0 13.0 0.00 0.00 0.00 48 976.1
20260903152552 90 360 8.0 13.0 0.00 0.00 0.00 48 976.2
20260903152053 90 360 8.0 12.0 0.00 0.00 0.00 48 976.2
20260903151551 89 360 4.0 8.0 0.00 0.00 0.00 49 976.3
20260903151051 89 360 3.0 8.0 0.00 0.00 0.00 49 976.3
20260903150551 89 360 0.0 8.0 0.00 0.00 0.00 50 976.3
20260903150051 88 360 2.0 8.0 0.00 0.00 0.00 51 976.3
20260903145553 88 360 4.0 10.0 0.00 0.00 0.00 52 976.4
20260903145051 88 360 5.0 10.0 0.00 0.00 0.00 52 976.3
20260903144559 88 360 2.0 4.0 0.00 0.00 0.00 54 976.3
20260903144054 87 360 2.0 6.0 0.00 0.00 0.00 55 976.3
20260903143550 87 360 3.0 8.0 0.00 0.00 0.00 56 976.3
20260903143104 88 360 3.0 8.0 0.00 0.00 0.00 55 976.2
20260903142551 87 360 4.0 8.0 0.00 0.00 0.00 54 976.1
20260903142051 87 360 3.0 9.0 0.00 0.00 0.00 55 976.1
20260903141601 87 360 5.0 10.0 0.00 0.00 0.00 55 976.0
20260903141051 86 360 4.0 10.0 0.00 0.00 0.00 56 975.9
20260903140551 86 360 4.0 8.0 0.00 0.00 0.00 56 975.9
20260903140051 86 360 3.0 5.0 0.00 0.00 0.00 56 975.9
20260903135550 85 18 2.0 5.0 0.00 0.00 0.00 57 975.7
20260903135051 85 360 2.0 6.0 0.00 0.00 0.00 57 975.6
20260903134557 85 360 3.0 8.0 0.00 0.00 0.00 57 975.5
20260903134051 85 360 4.0 8.0 0.00 0.00 0.00 57 975.5
20260903133551 85 360 3.0 8.0 0.00 0.00 0.00 57 975.4
20260903133051 85 360 4.0 9.0 0.00 0.00 0.00 58 975.4
20260903132550 85 360 5.0 9.0 0.00 0.00 0.00 58 975.4
20260903132050 85 360 7.0 9.0 0.00 0.00 0.00 58 975.5
20260903131551 85 360 5.0 11.0 0.00 0.00 0.00 58 975.4
20260903131051 85 360 4.0 11.0 0.00 0.00 0.00 58 975.1
20260903130550 85 360 5.0 11.0 0.00 0.00 0.00 58 975.3
20260903130050 85 360 8.0 11.0 0.00 0.00 0.00 58 975.0
20260903125551 85 360 8.0 11.0 0.00 0.00 0.00 58 974.9
20260903125053 85 360 7.0 11.0 0.00 0.00 0.00 58 975.0
20260903124550 85 360 7.0 11.0 0.00 0.00 0.00 57 975.0
20260903124051 85 360 6.0 11.0 0.00 0.00 0.00 57 974.9
20260903123550 85 360 4.0 9.0 0.00 0.00 0.00 57 974.9
20260903123050 85 360 4.0 9.0 0.00 0.00 0.00 56 975.0
20260903122552 86 360 3.0 6.0 0.00 0.00 0.00 56 974.9
20260903122052 86 360 2.0 9.0 0.00 0.00 0.00 56 974.8
20260903121550 86 360 5.0 9.0 0.00 0.00 0.00 55 974.6
20260903121051 86 360 4.0 9.0 0.00 0.00 0.00 55 974.7
20260903120552 86 360 4.0 8.0 0.00 0.00 0.00 55 974.6
20260903120053 86 360 3.0 10.0 0.00 0.00 0.00 55 974.5
20260903115550 86 360 5.0 11.0 0.00 0.00 0.00 54 974.5
20260903115051 86 360 6.0 11.0 0.00 0.00 0.00 54 974.5
20260903114551 86 360 6.0 12.0 0.00 0.00 0.00 54 974.5
20260903114050 86 360 6.0 12.0 0.00 0.00 0.00 54 974.5
20260903113551 87 360 7.0 10.0 0.00 0.00 0.00 53 974.5
20260903113051 87 360 4.0 9.0 0.00 0.00 0.00 53 974.6
20260903112551 87 360 4.0 9.0 0.00 0.00 0.00 53 974.5
20260903112051 87 360 4.0 9.0 0.00 0.00 0.00 53 974.6
20260903111551 87 360 5.0 9.0 0.00 0.00 0.00 53 974.6
20260903111055 87 360 2.0 5.0 0.00 0.00 0.00 52 974.5
20260903110551 87 360 1.0 6.0 0.00 0.00 0.00 52 974.5
20260903110055 87 360 1.0 8.0 0.00 0.00 0.00 52 974.4
20260903105551 87 360 3.0 13.0 0.00 0.00 0.00 52 974.6
20260903105051 87 360 6.0 13.0 0.00 0.00 0.00 51 974.4
20260903104556 87 360 2.0 6.0 0.00 0.00 0.00 52 974.5
20260903104050 87 360 1.0 9.0 0.00 0.00 0.00 52 974.5
20260903103550 87 360 3.0 10.0 0.00 0.00 0.00 52 974.5
20260903103054 88 360 4.0 10.0 0.00 0.00 0.00 51 974.4
20260903102552 88 360 5.0 9.0 0.00 0.00 0.00 51 974.5
20260903102051 88 360 3.0 8.0 0.00 0.00 0.00 50 974.4
20260903101601 88 360 2.0 6.0 0.00 0.00 0.00 50 974.4
20260903101051 88 360 1.0 6.0 0.00 0.00 0.00 50 974.5
20260903100551 88 360 4.0 10.0 0.00 0.00 0.00 49 974.6
20260903100051 89 360 3.0 10.0 0.00 0.00 0.00 49 974.7
20260903095551 89 360 1.0 8.0 0.00 0.00 0.00 49 974.8
20260903095050 89 360 1.0 10.0 0.00 0.00 0.00 49 974.7
20260903094551 89 360 2.0 13.0 0.00 0.00 0.00 48 974.7
20260903094051 89 17 3.0 13.0 0.00 0.00 0.00 48 974.8
20260903093553 89 360 3.0 9.0 0.00 0.00 0.00 48 974.6
20260903093106 89 360 4.0 10.0 0.00 0.00 0.00 47 974.6
20260903092551 90 360 6.0 12.0 0.00 0.00 0.00 47 974.6
20260903092051 90 360 4.0 15.0 0.00 0.00 0.00 46 974.6
20260903091551 90 360 8.0 15.0 0.00 0.00 0.00 46 974.6
20260903091050 91 360 7.0 18.0 0.00 0.00 0.00 45 974.5
20260903090551 91 360 11.0 18.0 0.00 0.00 0.00 44 974.5
20260903090055 91 360 6.0 17.0 0.00 0.00 0.00 44 974.4
20260903085551 91 360 4.0 16.0 0.00 0.00 0.00 42 974.4
20260903085051 91 360 6.0 12.0 0.00 0.00 0.00 41 974.5
20260903084550 91 360 4.0 11.0 0.00 0.00 0.00 38 974.4
20260903084051 91 360 6.0 11.0 0.00 0.00 0.00 37 974.5
20260903083550 91 360 5.0 11.0 0.00 0.00 0.00 36 974.5
20260903083050 91 360 4.0 11.0 0.00 0.00 0.00 34 974.5
20260903082550 92 360 6.0 12.0 0.00 0.00 0.00 33 974.5
20260903082052 92 360 4.0 13.0 0.00 0.00 0.00 31 974.5
20260903081557 92 360 7.0 13.0 0.00 0.00 0.00 31 974.5
20260903081055 92 360 8.0 13.0 0.00 0.00 0.00 30 974.4
20260903080550 93 360 5.0 14.0 0.00 0.00 0.00 29 974.4
20260903080051 93 360 8.0 14.0 0.00 0.00 0.00 28 974.4
20260903075555 93 360 7.0 14.0 0.00 0.00 0.00 28 974.4
20260903075051 93 360 4.0 8.0 0.00 0.00 0.00 25 974.4
20260903074552 92 360 3.0 9.0 0.00 0.00 0.00 25 974.4
20260903074050 92 360 3.0 9.0 0.00 0.00 0.00 25 974.4
20260903073551 91 360 2.0 8.0 0.00 0.00 0.00 26 974.4
20260903073051 91 360 0.0 4.0 0.00 0.00 0.00 26 974.3
20260903072550 91 360 0.0 5.0 0.00 0.00 0.00 27 974.2
20260903072051 91 360 2.0 5.0 0.00 0.00 0.00 27 974.3
20260903071551 92 360 2.0 4.0 0.00 0.00 0.00 26 974.3
20260903071051 92 360 1.0 4.0 0.00 0.00 0.00 26 974.3
20260903070550 93 360 2.0 4.0 0.00 0.00 0.00 26 974.2
20260903070055 93 360 2.0 4.0 0.00 0.00 0.00 25 974.2
20260903065551 93 360 1.0 6.0 0.00 0.00 0.00 25 974.2
20260903065050 94 360 1.0 6.0 0.00 0.00 0.00 22 974.1
20260903064551 94 360 3.0 6.0 0.00 0.00 0.00 22 974.2
20260903064051 94 360 1.0 3.0 0.00 0.00 0.00 22 974.0
20260903063550 94 360 1.0 5.0 0.00 0.00 0.00 22 974.0
20260903063113 94 360 1.0 8.0 0.00 0.00 0.00 22 974.0
20260903062551 94 360 1.0 4.0 0.00 0.00 0.00 22 974.1
20260903062051 94 167 1.0 3.0 0.00 0.00 0.00 23 974.0
20260903061551 94 360 1.0 3.0 0.00 0.00 0.00 22 974.1
20260903061050 94 360 1.0 6.0 0.00 0.00 0.00 22 974.2
20260903060550 94 360 1.0 6.0 0.00 0.00 0.00 22 974.0
20260903060051 94 360 1.0 4.0 0.00 0.00 0.00 22 974.1
20260903055550 94 360 2.0 5.0 0.00 0.00 0.00 22 974.1
20260903055050 94 360 2.0 5.0 0.00 0.00 0.00 21 974.0
20260903054551 94 360 1.0 8.0 0.00 0.00 0.00 22 974.0
20260903054051 94 360 2.0 8.0 0.00 0.00 0.00 22 974.1
20260903053553 93 360 2.0 6.0 0.00 0.00 0.00 23 974.0
20260903053050 93 360 1.0 6.0 0.00 0.00 0.00 24 974.1
20260903052550 94 360 1.0 3.0 0.00 0.00 0.00 26 974.0
20260903052052 94 360 1.0 3.0 0.00 0.00 0.00 25 974.0
20260903051551 95 360 0.0 5.0 0.00 0.00 0.00 27 974.0
20260903051051 95 360 1.0 5.0 0.00 0.00 0.00 26 974.1
20260903050550 95 360 1.0 6.0 0.00 0.00 0.00 24 974.0
20260903050113 96 360 3.0 6.0 0.00 0.00 0.00 22 974.0
20260903045552 96 360 2.0 6.0 0.00 0.00 0.00 22 974.0
20260903045051 96 360 2.0 10.0 0.00 0.00 0.00 24 974.0
20260903044550 96 360 3.0 10.0 0.00 0.00 0.00 24 974.0
20260903044051 96 360 5.0 10.0 0.00 0.00 0.00 24 974.0
20260903043551 96 360 2.0 11.0 0.00 0.00 0.00 23 974.0
20260903043050 96 360 4.0 11.0 0.00 0.00 0.00 24 973.9
20260903042550 96 360 4.0 12.0 0.00 0.00 0.00 25 973.8
20260903042051 96 360 5.0 14.0 0.00 0.00 0.00 28 973.8
20260903041554 96 360 10.0 14.0 0.00 0.00 0.00 30 973.8
20260903041051 96 360 6.0 12.0 0.00 0.00 0.00 35 973.8
20260903040551 96 360 4.0 11.0 0.00 0.00 0.00 36 973.7
20260903040057 96 360 3.0 11.0 0.00 0.00 0.00 37 973.6
20260903035550 96 360 6.0 11.0 0.00 0.00 0.00 36 973.7
20260903035050 97 360 6.0 11.0 0.00 0.00 0.00 36 973.6
20260903034550 97 360 5.0 12.0 0.00 0.00 0.00 36 973.6
20260903034052 97 360 8.0 12.0 0.00 0.00 0.00 36 973.5
20260903033550 97 360 7.0 11.0 0.00 0.00 0.00 36 973.5
20260903033051 97 360 6.0 11.0 0.00 0.00 0.00 36 973.5
20260903032551 97 15 5.0 10.0 0.00 0.00 0.00 36 973.5
20260903032051 97 360 6.0 10.0 0.00 0.00 0.00 36 973.4
20260903031550 97 360 4.0 9.0 0.00 0.00 0.00 36 973.3
20260903031050 97 360 6.0 10.0 0.00 0.00 0.00 36 973.3
20260903030551 97 360 4.0 10.0 0.00 0.00 0.00 35 973.3
20260903030051 97 360 7.0 12.0 0.00 0.00 0.00 35 973.2
20260903025551 97 360 6.0 11.0 0.00 0.00 0.00 35 973.1
20260903025054 97 360 7.0 13.0 0.00 0.00 0.00 34 973.0
20260903024551 98 360 7.0 13.0 0.00 0.00 0.00 34 973.0
20260903024052 98 360 7.0 13.0 0.00 0.00 0.00 34 973.1
20260903023552 98 360 7.0 12.0 0.00 0.00 0.00 33 973.1
20260903023051 98 360 7.0 12.0 0.00 0.00 0.00 33 973.0
20260903022551 98 360 7.0 13.0 0.00 0.00 0.00 33 973.0
20260903022050 98 360 8.0 14.0 0.00 0.00 0.00 33 973.0
20260903021551 98 360 7.0 14.0 0.00 0.00 0.00 33 972.9
20260903021050 98 15 8.0 16.0 0.00 0.00 0.00 34 972.9
20260903020550 98 360 11.0 16.0 0.00 0.00 0.00 34 972.8
20260903020052 98 360 5.0 10.0 0.00 0.00 0.00 34 972.8
20260903015551 98 360 5.0 10.0 0.00 0.00 0.00 31 972.7
20260903015050 99 360 7.0 12.0 0.00 0.00 0.00 31 972.6
20260903014552 99 360 9.0 12.0 0.00 0.00 0.00 31 972.7
20260903014052 99 360 8.0 12.0 0.00 0.00 0.00 31 972.6
20260903013551 99 360 10.0 13.0 0.00 0.00 0.00 31 972.5
20260903013051 99 360 9.0 13.0 0.00 0.00 0.00 31 972.5
20260903012550 99 113 8.0 12.0 0.00 0.00 0.00 31 972.5
20260903012050 100 132 8.0 14.0 0.00 0.00 0.00 31 972.5
20260903011601 100 145 8.0 14.0 0.00 0.00 0.00 31 972.5